| time (UTC) | temp C | wind direction | speed KPH | gust KPH | rain 1hr cm | rain 24hr cm | rain mn cm | humidity % | barometer mb |
| 20260503005731 | 24 | 6 | 6.4 | 9.7 | 0.00 | 0.00 | 0.00 | 19 | 1012.0 |
| 20260503005232 | 24 | 314 | 4.8 | 8.0 | 0.00 | 0.00 | 0.00 | 18 | 1012.0 |
| 20260503004731 | 24 | 340 | 6.4 | 8.0 | 0.00 | 0.00 | 0.00 | 18 | 1012.0 |
| 20260503004232 | 25 | 327 | 8.0 | 12.9 | 0.00 | 0.00 | 0.00 | 19 | 1012.0 |
| 20260503003732 | 25 | 357 | 4.8 | 9.7 | 0.00 | 0.00 | 0.00 | 18 | 1012.0 |
| 20260503003231 | 25 | 358 | 4.8 | 6.4 | 0.00 | 0.00 | 0.00 | 19 | 1012.0 |
| 20260503002731 | 25 | 32 | 4.8 | 8.0 | 0.00 | 0.00 | 0.00 | 18 | 1012.0 |
| 20260503002231 | 25 | 328 | 1.6 | 3.2 | 0.00 | 0.00 | 0.00 | 22 | 1013.0 |
| 20260503001732 | 25 | 56 | 3.2 | 4.8 | 0.00 | 0.00 | 0.00 | 18 | 1012.0 |
| 20260503001232 | 25 | 76 | 1.6 | 3.2 | 0.00 | 0.00 | 0.00 | 19 | 1013.0 |
| 20260503000731 | 24 | 94 | 6.4 | 6.4 | 0.00 | 0.00 | 0.00 | 18 | 1013.0 |
| 20260503000233 | 25 | 112 | 3.2 | 9.7 | 0.00 | 0.00 | 0.00 | 19 | 1013.0 |
| 20260502235732 | 24 | 90 | 3.2 | 4.8 | 0.00 | 0.00 | 0.00 | 18 | 1013.0 |
| 20260502235232 | 25 | 26 | 3.2 | 6.4 | 0.00 | 0.00 | 0.00 | 19 | 1013.0 |
| 20260502234732 | 25 | 74 | 4.8 | 6.4 | 0.00 | 0.00 | 0.00 | 18 | 1013.0 |
| 20260502234231 | 25 | 19 | 9.7 | 12.9 | 0.00 | 0.00 | 0.00 | 18 | 1013.0 |
| 20260502233731 | 25 | 98 | 6.4 | 9.7 | 0.00 | 0.00 | 0.00 | 18 | 1013.0 |
| 20260502233232 | 25 | 270 | 3.2 | 4.8 | 0.00 | 0.00 | 0.00 | 19 | 1013.0 |
| 20260502232731 | 25 | 254 | 3.2 | 6.4 | 0.00 | 0.00 | 0.00 | 20 | 1013.0 |
| 20260502232232 | 25 | 112 | 9.7 | 12.9 | 0.00 | 0.00 | 0.00 | 18 | 1013.0 |
| 20260502231731 | 25 | 327 | 4.8 | 12.9 | 0.00 | 0.00 | 0.00 | 18 | 1013.0 |
| 20260502231231 | 25 | 48 | 3.2 | 9.7 | 0.00 | 0.00 | 0.00 | 19 | 1013.0 |
| 20260502230731 | 25 | 54 | 1.6 | 3.2 | 0.00 | 0.00 | 0.00 | 17 | 1013.0 |
| 20260502230231 | 25 | 128 | 3.2 | 11.3 | 0.00 | 0.00 | 0.00 | 18 | 1013.0 |
| 20260502225731 | 24 | 65 | 3.2 | 6.4 | 0.00 | 0.00 | 0.00 | 21 | 1013.0 |
| 20260502225231 | 24 | 77 | 9.7 | 14.5 | 0.00 | 0.00 | 0.00 | 17 | 1013.0 |
| 20260502224731 | 24 | 104 | 1.6 | 6.4 | 0.00 | 0.00 | 0.00 | 20 | 1013.0 |
| 20260502224231 | 24 | 81 | 6.4 | 11.3 | 0.00 | 0.00 | 0.00 | 18 | 1013.0 |
| 20260502223732 | 24 | 105 | 9.7 | 11.3 | 0.00 | 0.00 | 0.00 | 18 | 1013.0 |
| 20260502223231 | 25 | 174 | 3.2 | 6.4 | 0.00 | 0.00 | 0.00 | 20 | 1013.0 |
| 20260502222731 | 25 | 108 | 9.7 | 14.5 | 0.00 | 0.00 | 0.00 | 20 | 1013.0 |
| 20260502222232 | 25 | 81 | 9.7 | 14.5 | 0.00 | 0.00 | 0.00 | 19 | 1013.0 |
| 20260502221731 | 24 | 165 | 3.2 | 11.3 | 0.00 | 0.00 | 0.00 | 20 | 1014.0 |
| 20260502221232 | 24 | 99 | 11.3 | 16.1 | 0.00 | 0.00 | 0.00 | 20 | 1014.0 |
| 20260502220731 | 24 | 115 | 9.7 | 20.9 | 0.00 | 0.00 | 0.00 | 21 | 1014.0 |
| 20260502220231 | 25 | 117 | 8.0 | 14.5 | 0.00 | 0.00 | 0.00 | 20 | 1014.0 |
| 20260502215731 | 25 | 150 | 8.0 | 16.1 | 0.00 | 0.00 | 0.00 | 21 | 1014.0 |
| 20260502215231 | 25 | 155 | 6.4 | 12.9 | 0.00 | 0.00 | 0.00 | 22 | 1014.0 |
| 20260502214731 | 24 | 178 | 3.2 | 6.4 | 0.00 | 0.00 | 0.00 | 22 | 1014.0 |
| 20260502214231 | 24 | 203 | 6.4 | 6.4 | 0.00 | 0.00 | 0.00 | 21 | 1014.0 |
| 20260502213732 | 24 | 314 | 11.3 | 14.5 | 0.00 | 0.00 | 0.00 | 22 | 1014.0 |
| 20260502213232 | 25 | 314 | 6.4 | 9.7 | 0.00 | 0.00 | 0.00 | 22 | 1014.0 |
| 20260502212731 | 24 | 315 | 4.8 | 4.8 | 0.00 | 0.00 | 0.00 | 24 | 1014.0 |
| 20260502212231 | 24 | 313 | 8.0 | 9.7 | 0.00 | 0.00 | 0.00 | 23 | 1014.0 |
| 20260502211732 | 24 | 315 | 4.8 | 9.7 | 0.00 | 0.00 | 0.00 | 24 | 1014.0 |
| 20260502211233 | 23 | 315 | 4.8 | 8.0 | 0.00 | 0.00 | 0.00 | 22 | 1014.0 |
| 20260502210733 | 23 | 315 | 4.8 | 6.4 | 0.00 | 0.00 | 0.00 | 25 | 1015.0 |
| 20260502210232 | 23 | 314 | 4.8 | 6.4 | 0.00 | 0.00 | 0.00 | 24 | 1015.0 |
| 20260502205732 | 23 | 314 | 4.8 | 4.8 | 0.00 | 0.00 | 0.00 | 23 | 1015.0 |
| 20260502205232 | 23 | 314 | 4.8 | 6.4 | 0.00 | 0.00 | 0.00 | 22 | 1015.0 |
| 20260502204731 | 23 | 314 | 3.2 | 4.8 | 0.00 | 0.00 | 0.00 | 24 | 1015.0 |
| 20260502204231 | 24 | 314 | 9.7 | 14.5 | 0.00 | 0.00 | 0.00 | 21 | 1015.0 |
| 20260502203731 | 24 | 314 | 4.8 | 8.0 | 0.00 | 0.00 | 0.00 | 23 | 1015.0 |
| 20260502203231 | 23 | 314 | 6.4 | 12.9 | 0.00 | 0.00 | 0.00 | 26 | 1015.0 |
| 20260502202732 | 23 | 315 | 6.4 | 12.9 | 0.00 | 0.00 | 0.00 | 23 | 1015.0 |
| 20260502202232 | 23 | 315 | 8.0 | 9.7 | 0.00 | 0.00 | 0.00 | 22 | 1015.0 |
| 20260502201731 | 23 | 314 | 4.8 | 6.4 | 0.00 | 0.00 | 0.00 | 22 | 1015.0 |
| 20260502201232 | 23 | 315 | 6.4 | 8.0 | 0.00 | 0.00 | 0.00 | 22 | 1015.0 |
| 20260502200731 | 23 | 315 | 4.8 | 6.4 | 0.00 | 0.00 | 0.00 | 23 | 1015.0 |
| 20260502200232 | 23 | 315 | 6.4 | 9.7 | 0.00 | 0.00 | 0.00 | 22 | 1015.0 |
| 20260502195731 | 23 | 314 | 8.0 | 11.3 | 0.00 | 0.00 | 0.00 | 24 | 1015.0 |
| 20260502195232 | 23 | 314 | 9.7 | 11.3 | 0.00 | 0.00 | 0.00 | 24 | 1015.0 |
| 20260502194731 | 23 | 315 | 6.4 | 9.7 | 0.00 | 0.00 | 0.00 | 25 | 1015.0 |
| 20260502194231 | 23 | 312 | 4.8 | 8.0 | 0.00 | 0.00 | 0.00 | 24 | 1015.0 |
| 20260502193731 | 23 | 313 | 9.7 | 12.9 | 0.00 | 0.00 | 0.00 | 24 | 1015.0 |
| 20260502193231 | 23 | 315 | 4.8 | 9.7 | 0.00 | 0.00 | 0.00 | 25 | 1015.0 |
| 20260502192731 | 23 | 315 | 8.0 | 11.3 | 0.00 | 0.00 | 0.00 | 23 | 1016.0 |
| 20260502192232 | 22 | 314 | 8.0 | 11.3 | 0.00 | 0.00 | 0.00 | 24 | 1016.0 |
| 20260502191733 | 22 | 314 | 6.4 | 11.3 | 0.00 | 0.00 | 0.00 | 24 | 1016.0 |
| 20260502191231 | 22 | 315 | 3.2 | 3.2 | 0.00 | 0.00 | 0.00 | 34 | 1016.0 |
| 20260502190731 | 22 | 314 | 3.2 | 4.8 | 0.00 | 0.00 | 0.00 | 34 | 1016.0 |
| 20260502190232 | 21 | 312 | 3.2 | 6.4 | 0.00 | 0.00 | 0.00 | 35 | 1016.0 |
| 20260502185731 | 21 | 315 | 3.2 | 4.8 | 0.00 | 0.00 | 0.00 | 35 | 1016.0 |
| 20260502185231 | 21 | 314 | 4.8 | 4.8 | 0.00 | 0.00 | 0.00 | 35 | 1016.0 |
| 20260502184732 | 21 | 314 | 4.8 | 4.8 | 0.00 | 0.00 | 0.00 | 36 | 1016.0 |
| 20260502184232 | 21 | 314 | 4.8 | 6.4 | 0.00 | 0.00 | 0.00 | 35 | 1016.0 |
| 20260502183732 | 21 | 314 | 3.2 | 4.8 | 0.00 | 0.00 | 0.00 | 34 | 1016.0 |
| 20260502183232 | 20 | 311 | 3.2 | 4.8 | 0.00 | 0.00 | 0.00 | 37 | 1017.0 |
| 20260502182731 | 20 | 298 | 3.2 | 4.8 | 0.00 | 0.00 | 0.00 | 40 | 1017.0 |
| 20260502182232 | 20 | 309 | 4.8 | 9.7 | 0.00 | 0.00 | 0.00 | 37 | 1017.0 |
| 20260502181733 | 19 | 316 | 3.2 | 4.8 | 0.00 | 0.00 | 0.00 | 38 | 1017.0 |
| 20260502181232 | 19 | 281 | 4.8 | 6.4 | 0.00 | 0.00 | 0.00 | 39 | 1017.0 |
| 20260502180731 | 19 | 313 | 6.4 | 9.7 | 0.00 | 0.00 | 0.00 | 41 | 1017.0 |
| 20260502180232 | 18 | 305 | 6.4 | 8.0 | 0.00 | 0.00 | 0.00 | 42 | 1017.0 |
| 20260502170232 | 17 | 298 | 4.8 | 8.0 | 0.00 | 0.00 | 0.00 | 44 | 1017.0 |
| 20260502164231 | 16 | 359 | 3.2 | 4.8 | 0.00 | 0.00 | 0.00 | 46 | 1017.0 |
| 20260502163731 | 16 | 349 | 4.8 | 6.4 | 0.00 | 0.00 | 0.00 | 46 | 1017.0 |
| 20260502163232 | 16 | 306 | 6.4 | 8.0 | 0.00 | 0.00 | 0.00 | 46 | 1017.0 |
| 20260502162732 | 16 | 14 | 3.2 | 4.8 | 0.00 | 0.00 | 0.00 | 45 | 1017.0 |
| 20260502162231 | 15 | 340 | 4.8 | 9.7 | 0.00 | 0.00 | 0.00 | 48 | 1017.0 |
| 20260502161731 | 15 | 357 | 6.4 | 8.0 | 0.00 | 0.00 | 0.00 | 49 | 1017.0 |
| 20260502161231 | 15 | 296 | 8.0 | 11.3 | 0.00 | 0.00 | 0.00 | 51 | 1017.0 |
| 20260502160732 | 14 | 305 | 11.3 | 14.5 | 0.00 | 0.00 | 0.00 | 51 | 1017.0 |
| 20260502160232 | 14 | 303 | 9.7 | 12.9 | 0.00 | 0.00 | 0.00 | 51 | 1017.0 |
| 20260502152231 | 12 | 325 | 3.2 | 4.8 | 0.00 | 0.00 | 0.00 | 57 | 1017.0 |
| 20260502151731 | 12 | 326 | 3.2 | 4.8 | 0.00 | 0.00 | 0.00 | 57 | 1017.0 |
| 20260502151231 | 12 | 12 | 6.4 | 8.0 | 0.00 | 0.00 | 0.00 | 55 | 1017.0 |
| 20260502150731 | 12 | 356 | 6.4 | 8.0 | 0.00 | 0.00 | 0.00 | 54 | 1017.0 |
| 20260502150231 | 12 | 43 | 4.8 | 8.0 | 0.00 | 0.00 | 0.00 | 55 | 1017.0 |
| 20260502130731 | 11 | 113 | 14.5 | 20.9 | 0.00 | 0.00 | 0.00 | 51 | 1016.0 |
| 20260502130231 | 12 | 88 | 11.3 | 14.5 | 0.00 | 0.00 | 0.00 | 49 | 1016.0 |
| 20260502123731 | 11 | 90 | 11.3 | 14.5 | 0.00 | 0.00 | 0.00 | 46 | 1016.0 |
| 20260502123232 | 11 | 108 | 9.7 | 14.5 | 0.00 | 0.00 | 0.00 | 49 | 1016.0 |
| 20260502122731 | 11 | 115 | 11.3 | 16.1 | 0.00 | 0.00 | 0.00 | 51 | 1016.0 |
| 20260502122232 | 11 | 104 | 11.3 | 14.5 | 0.00 | 0.00 | 0.00 | 50 | 1016.0 |
| 20260502121731 | 11 | 108 | 11.3 | 14.5 | 0.00 | 0.00 | 0.00 | 51 | 1016.0 |
| 20260502121232 | 12 | 112 | 11.3 | 14.5 | 0.00 | 0.00 | 0.00 | 49 | 1016.0 |
| 20260502120732 | 12 | 110 | 12.9 | 17.7 | 0.00 | 0.00 | 0.00 | 49 | 1016.0 |
| 20260502120232 | 12 | 100 | 9.7 | 12.9 | 0.00 | 0.00 | 0.00 | 48 | 1016.0 |
| 20260502115732 | 12 | 101 | 8.0 | 9.7 | 0.00 | 0.00 | 0.00 | 47 | 1016.0 |
| 20260502115231 | 12 | 101 | 9.7 | 11.3 | 0.00 | 0.00 | 0.00 | 48 | 1016.0 |
| 20260502114732 | 12 | 89 | 9.7 | 12.9 | 0.00 | 0.00 | 0.00 | 48 | 1016.0 |
| 20260502114233 | 12 | 114 | 9.7 | 12.9 | 0.00 | 0.00 | 0.00 | 48 | 1016.0 |
| 20260502113731 | 12 | 115 | 9.7 | 12.9 | 0.00 | 0.00 | 0.00 | 49 | 1016.0 |
| 20260502113231 | 12 | 110 | 12.9 | 17.7 | 0.00 | 0.00 | 0.00 | 49 | 1017.0 |
| 20260502112732 | 11 | 107 | 12.9 | 19.3 | 0.00 | 0.00 | 0.00 | 49 | 1016.0 |
| 20260502112231 | 11 | 133 | 11.3 | 17.7 | 0.00 | 0.00 | 0.00 | 51 | 1016.0 |
| 20260502111732 | 12 | 128 | 8.0 | 9.7 | 0.00 | 0.00 | 0.00 | 48 | 1017.0 |
| 20260502111231 | 12 | 123 | 9.7 | 14.5 | 0.00 | 0.00 | 0.00 | 49 | 1017.0 |
| 20260502110731 | 12 | 120 | 9.7 | 16.1 | 0.00 | 0.00 | 0.00 | 48 | 1017.0 |
| 20260502110231 | 12 | 100 | 12.9 | 14.5 | 0.00 | 0.00 | 0.00 | 48 | 1017.0 |
| 20260502105732 | 12 | 118 | 9.7 | 14.5 | 0.00 | 0.00 | 0.00 | 49 | 1017.0 |
| 20260502105232 | 12 | 128 | 12.9 | 16.1 | 0.00 | 0.00 | 0.00 | 49 | 1017.0 |
| 20260502104731 | 12 | 124 | 11.3 | 16.1 | 0.00 | 0.00 | 0.00 | 48 | 1017.0 |
| 20260502104232 | 12 | 96 | 8.0 | 12.9 | 0.00 | 0.00 | 0.00 | 48 | 1017.0 |
| 20260502103731 | 12 | 99 | 8.0 | 11.3 | 0.00 | 0.00 | 0.00 | 49 | 1017.0 |
| 20260502103231 | 12 | 99 | 8.0 | 11.3 | 0.00 | 0.00 | 0.00 | 50 | 1017.0 |
| 20260502102731 | 12 | 113 | 9.7 | 12.9 | 0.00 | 0.00 | 0.00 | 49 | 1017.0 |
| 20260502102231 | 12 | 113 | 6.4 | 11.3 | 0.00 | 0.00 | 0.00 | 50 | 1017.0 |
| 20260502101731 | 12 | 98 | 9.7 | 14.5 | 0.00 | 0.00 | 0.00 | 50 | 1017.0 |
| 20260502101231 | 12 | 88 | 12.9 | 16.1 | 0.00 | 0.00 | 0.00 | 52 | 1017.0 |
| 20260502100732 | 12 | 100 | 9.7 | 12.9 | 0.00 | 0.00 | 0.00 | 50 | 1017.0 |
| 20260502100231 | 12 | 92 | 12.9 | 19.3 | 0.00 | 0.00 | 0.00 | 50 | 1017.0 |
| 20260502091232 | 12 | 105 | 11.3 | 14.5 | 0.00 | 0.00 | 0.00 | 50 | 1017.0 |
| 20260502090732 | 12 | 95 | 9.7 | 19.3 | 0.00 | 0.00 | 0.00 | 49 | 1017.0 |
| 20260502090231 | 12 | 111 | 12.9 | 17.7 | 0.00 | 0.00 | 0.00 | 48 | 1017.0 |
| 20260502071232 | 13 | 122 | 8.0 | 11.3 | 0.00 | 0.00 | 0.00 | 47 | 1017.0 |
| 20260502070731 | 13 | 119 | 9.7 | 12.9 | 0.00 | 0.00 | 0.00 | 46 | 1017.0 |
| 20260502070232 | 13 | 115 | 8.0 | 12.9 | 0.00 | 0.00 | 0.00 | 46 | 1017.0 |
| 20260502065731 | 13 | 117 | 9.7 | 16.1 | 0.00 | 0.00 | 0.00 | 45 | 1017.0 |
| 20260502065232 | 13 | 117 | 11.3 | 16.1 | 0.00 | 0.00 | 0.00 | 46 | 1017.0 |
| 20260502064732 | 14 | 130 | 9.7 | 14.5 | 0.00 | 0.00 | 0.00 | 45 | 1017.0 |
| 20260502064231 | 14 | 111 | 9.7 | 14.5 | 0.00 | 0.00 | 0.00 | 43 | 1017.0 |
| 20260502063732 | 14 | 114 | 8.0 | 11.3 | 0.00 | 0.00 | 0.00 | 44 | 1017.0 |
| 20260502063232 | 14 | 124 | 8.0 | 11.3 | 0.00 | 0.00 | 0.00 | 44 | 1017.0 |
| 20260502062731 | 13 | 107 | 9.7 | 16.1 | 0.00 | 0.00 | 0.00 | 44 | 1017.0 |
| 20260502062231 | 13 | 114 | 9.7 | 14.5 | 0.00 | 0.00 | 0.00 | 46 | 1017.0 |
| 20260502061731 | 13 | 116 | 9.7 | 14.5 | 0.00 | 0.00 | 0.00 | 46 | 1017.0 |
| 20260502061232 | 13 | 109 | 6.4 | 8.0 | 0.00 | 0.00 | 0.00 | 47 | 1017.0 |
| 20260502060731 | 14 | 112 | 9.7 | 14.5 | 0.00 | 0.00 | 0.00 | 45 | 1017.0 |
| 20260502060231 | 14 | 111 | 8.0 | 12.9 | 0.00 | 0.00 | 0.00 | 44 | 1017.0 |
| 20260502055731 | 14 | 101 | 9.7 | 12.9 | 0.00 | 0.00 | 0.00 | 44 | 1017.0 |
| 20260502055231 | 14 | 111 | 9.7 | 12.9 | 0.00 | 0.00 | 0.00 | 44 | 1017.0 |
| 20260502054734 | 14 | 93 | 9.7 | 12.9 | 0.00 | 0.00 | 0.00 | 42 | 1017.0 |
| 20260502054232 | 14 | 101 | 9.7 | 14.5 | 0.00 | 0.00 | 0.00 | 44 | 1017.0 |
| 20260502053732 | 14 | 116 | 8.0 | 11.3 | 0.00 | 0.00 | 0.00 | 43 | 1017.0 |
| 20260502053232 | 14 | 106 | 9.7 | 11.3 | 0.00 | 0.00 | 0.00 | 43 | 1017.0 |
| 20260502052732 | 14 | 111 | 6.4 | 9.7 | 0.00 | 0.00 | 0.00 | 43 | 1017.0 |
| 20260502052232 | 14 | 111 | 8.0 | 14.5 | 0.00 | 0.00 | 0.00 | 44 | 1017.0 |
| 20260502051731 | 14 | 96 | 8.0 | 12.9 | 0.00 | 0.00 | 0.00 | 43 | 1017.0 |
| 20260502051233 | 13 | 95 | 6.4 | 6.4 | 0.00 | 0.00 | 0.00 | 43 | 1017.0 |
| 20260502050732 | 13 | 116 | 6.4 | 11.3 | 0.00 | 0.00 | 0.00 | 48 | 1017.0 |
| 20260502050231 | 13 | 119 | 8.0 | 11.3 | 0.00 | 0.00 | 0.00 | 48 | 1017.0 |
| 20260502045731 | 13 | 120 | 6.4 | 9.7 | 0.00 | 0.00 | 0.00 | 46 | 1017.0 |
| 20260502045231 | 13 | 123 | 6.4 | 8.0 | 0.00 | 0.00 | 0.00 | 47 | 1017.0 |
| 20260502044731 | 13 | 132 | 6.4 | 8.0 | 0.00 | 0.00 | 0.00 | 46 | 1017.0 |
| 20260502044232 | 13 | 127 | 4.8 | 6.4 | 0.00 | 0.00 | 0.00 | 47 | 1017.0 |
| 20260502043731 | 13 | 126 | 8.0 | 11.3 | 0.00 | 0.00 | 0.00 | 47 | 1017.0 |
| 20260502043231 | 14 | 128 | 8.0 | 11.3 | 0.00 | 0.00 | 0.00 | 44 | 1017.0 |
| 20260502042731 | 15 | 127 | 6.4 | 6.4 | 0.00 | 0.00 | 0.00 | 43 | 1017.0 |
| 20260502042232 | 15 | 125 | 8.0 | 9.7 | 0.00 | 0.00 | 0.00 | 42 | 1017.0 |
| 20260502041731 | 15 | 113 | 4.8 | 6.4 | 0.00 | 0.00 | 0.00 | 39 | 1017.0 |
| 20260502041231 | 16 | 112 | 6.4 | 9.7 | 0.00 | 0.00 | 0.00 | 38 | 1017.0 |
| 20260502040731 | 16 | 89 | 4.8 | 6.4 | 0.00 | 0.00 | 0.00 | 37 | 1017.0 |
| 20260502040231 | 16 | 127 | 6.4 | 6.4 | 0.00 | 0.00 | 0.00 | 37 | 1017.0 |
| 20260502035731 | 16 | 108 | 6.4 | 6.4 | 0.00 | 0.00 | 0.00 | 36 | 1017.0 |
| 20260502035232 | 16 | 122 | 6.4 | 8.0 | 0.00 | 0.00 | 0.00 | 35 | 1017.0 |
| 20260502034731 | 16 | 116 | 3.2 | 4.8 | 0.00 | 0.00 | 0.00 | 35 | 1017.0 |
| 20260502034231 | 16 | 106 | 6.4 | 8.0 | 0.00 | 0.00 | 0.00 | 36 | 1017.0 |
| 20260502033731 | 16 | 124 | 6.4 | 9.7 | 0.00 | 0.00 | 0.00 | 36 | 1017.0 |
| 20260502033232 | 16 | 116 | 4.8 | 6.4 | 0.00 | 0.00 | 0.00 | 36 | 1017.0 |
| 20260502032731 | 16 | 117 | 4.8 | 8.0 | 0.00 | 0.00 | 0.00 | 37 | 1017.0 |
| 20260502032232 | 16 | 119 | 3.2 | 6.4 | 0.00 | 0.00 | 0.00 | 37 | 1017.0 |
| 20260502031731 | 17 | 124 | 4.8 | 9.7 | 0.00 | 0.00 | 0.00 | 39 | 1017.0 |
| 20260502031232 | 17 | 135 | 4.8 | 4.8 | 0.00 | 0.00 | 0.00 | 38 | 1017.0 |
| 20260502030734 | 17 | 137 | 3.2 | 4.8 | 0.00 | 0.00 | 0.00 | 37 | 1017.0 |
| 20260502030232 | 18 | 137 | 4.8 | 6.4 | 0.00 | 0.00 | 0.00 | 36 | 1017.0 |
| 20260502025732 | 19 | 136 | 1.6 | 1.6 | 0.00 | 0.00 | 0.00 | 30 | 1016.0 |
| 20260502025231 | 19 | 135 | 1.6 | 1.6 | 0.00 | 0.00 | 0.00 | 28 | 1016.0 |
| 20260502024733 | 20 | 135 | 1.6 | 1.6 | 0.00 | 0.00 | 0.00 | 26 | 1016.0 |
| 20260502024232 | 20 | 135 | 1.6 | 3.2 | 0.00 | 0.00 | 0.00 | 25 | 1016.0 |
| 20260502023731 | 20 | 136 | 1.6 | 3.2 | 0.00 | 0.00 | 0.00 | 24 | 1016.0 |
| 20260502023232 | 20 | 137 | 3.2 | 3.2 | 0.00 | 0.00 | 0.00 | 24 | 1016.0 |
| 20260502022731 | 20 | 136 | 3.2 | 4.8 | 0.00 | 0.00 | 0.00 | 23 | 1016.0 |
| 20260502022231 | 21 | 136 | 3.2 | 3.2 | 0.00 | 0.00 | 0.00 | 22 | 1016.0 |
| 20260502021732 | 21 | 137 | 3.2 | 4.8 | 0.00 | 0.00 | 0.00 | 22 | 1016.0 |
| 20260502021231 | 21 | 137 | 3.2 | 4.8 | 0.00 | 0.00 | 0.00 | 21 | 1016.0 |
| 20260502020732 | 21 | 136 | 3.2 | 3.2 | 0.00 | 0.00 | 0.00 | 20 | 1016.0 |
| 20260502020231 | 21 | 137 | 3.2 | 3.2 | 0.00 | 0.00 | 0.00 | 21 | 1016.0 |
| 20260502015731 | 21 | 137 | 3.2 | 3.2 | 0.00 | 0.00 | 0.00 | 21 | 1016.0 |
| 20260502015232 | 21 | 137 | 3.2 | 3.2 | 0.00 | 0.00 | 0.00 | 22 | 1016.0 |
| 20260502014732 | 21 | 136 | 4.8 | 11.3 | 0.00 | 0.00 | 0.00 | 21 | 1016.0 |
| 20260502014231 | 21 | 136 | 1.6 | 3.2 | 0.00 | 0.00 | 0.00 | 23 | 1016.0 |
| 20260502013731 | 21 | 136 | 3.2 | 4.8 | 0.00 | 0.00 | 0.00 | 22 | 1016.0 |
| 20260502013232 | 21 | 137 | 3.2 | 4.8 | 0.00 | 0.00 | 0.00 | 21 | 1016.0 |
| 20260502012731 | 22 | 136 | 3.2 | 4.8 | 0.00 | 0.00 | 0.00 | 19 | 1016.0 |
| 20260502012231 | 22 | 137 | 3.2 | 4.8 | 0.00 | 0.00 | 0.00 | 20 | 1016.0 |
| 20260502011731 | 22 | 137 | 3.2 | 4.8 | 0.00 | 0.00 | 0.00 | 19 | 1017.0 |
| 20260502011231 | 22 | 137 | 3.2 | 4.8 | 0.00 | 0.00 | 0.00 | 19 | 1017.0 |
| 20260502010734 | 22 | 136 | 3.2 | 4.8 | 0.00 | 0.00 | 0.00 | 20 | 1017.0 |
| 20260502010231 | 22 | 138 | 3.2 | 6.4 | 0.00 | 0.00 | 0.00 | 20 | 1017.0 |